DW2959 Murcia ES current weather conditions

sailwx.info

Wind from 180

Air temperature 14.4° C
Dewpoint 12.1° C

Last reported at 2014-Nov-26 19:46 UTC.
Time now 2014-Nov-26 20:16 UTC

Location: N 38°00' W 001°02'.
View on Google Maps.

See reports from other nearby stations

  
Tides and Currents Weather Stations Pressure Air Temp Water Temp Dewpoint Dewpoint Depression Visibility Wind Speed Wind Dir Waves Ship Positions
date/time (UTC)wind fromknots sea level pressurealtimeterstation pressurevisibilityair tempwater tempwave heightnotes
2014-Nov-26 19:46 180 14.4
2014-Nov-26 19:32 180 0 15.0
2014-Nov-26 19:15 180 0 15.6
2014-Nov-26 19:01 134 0 16.1
2014-Nov-26 18:46 153 16.1
2014-Nov-26 18:30 152 16.1
2014-Nov-26 18:15 152 16.1
2014-Nov-26 18:00 152 16.7
2014-Nov-26 17:46 148 16.7
2014-Nov-26 17:31 148 0 17.2
2014-Nov-26 17:16 155 17.2
2014-Nov-26 17:01 155 17.2
2014-Nov-26 16:46 155 0 17.8
2014-Nov-26 16:30 155 0 18.3
2014-Nov-26 16:15 166 0 18.9
2014-Nov-26 16:00 171 1 19.4
2014-Nov-26 15:47 181 20.0
2014-Nov-26 15:29 182 20.6
2014-Nov-26 15:15 182 20.6
2014-Nov-26 15:00 182 20.6
2014-Nov-26 14:45 182 20.6
2014-Nov-26 14:29 182 20.0
2014-Nov-26 14:14 182 20.0
2014-Nov-26 13:59 182 0 20.0
2014-Nov-26 13:45 182 0 19.4
2014-Nov-26 13:30 182 0 19.4
2014-Nov-26 13:14 182 0 19.4
2014-Nov-26 12:59 180 2 19.4
2014-Nov-26 12:45 211 2 18.9
2014-Nov-26 12:30 245 2 18.3
2014-Nov-26 12:13 236 1 18.3
2014-Nov-26 11:59 234 2 17.8
2014-Nov-26 11:44 219 2 17.8
2014-Nov-26 11:29 238 2 17.2
2014-Nov-26 11:13 224 2 17.2
2014-Nov-26 10:58 221 2 16.7
2014-Nov-26 10:43 238 2 16.7
2014-Nov-26 10:28 234 2 16.1
2014-Nov-26 10:13 265 1 15.6
2014-Nov-26 09:59 242 0 15.6
2014-Nov-26 09:44 241 1 15.0
2014-Nov-26 09:27 242 0 15.0
2014-Nov-26 09:13 240 1 14.4
2014-Nov-26 08:58 235 14.4
2014-Nov-26 08:43 235 13.9
2014-Nov-26 08:27 235 13.3
2014-Nov-26 08:13 235 13.3
2014-Nov-26 07:58 235 12.8
2014-Nov-26 07:45 235 13.3
2014-Nov-26 07:27
2014-Nov-26 07:13
2014-Nov-26 06:59
2014-Nov-26 06:42
2014-Nov-26 06:27
2014-Nov-26 06:11
2014-Nov-26 05:57
2014-Nov-26 05:41
2014-Nov-26 05:26
2014-Nov-26 05:12
2014-Nov-26 04:57
2014-Nov-26 04:41
2014-Nov-26 04:26
2014-Nov-26 04:11
2014-Nov-26 03:55
2014-Nov-26 03:41
2014-Nov-26 03:25
2014-Nov-26 03:10
2014-Nov-26 02:55
2014-Nov-26 02:41
2014-Nov-26 02:25
2014-Nov-26 02:10
2014-Nov-26 01:55
2014-Nov-26 01:39
2014-Nov-26 01:25
2014-Nov-26 01:09
2014-Nov-26 00:54
2014-Nov-26 00:40 196 15.0
2014-Nov-26 00:23 196 15.0
2014-Nov-26 00:09 196 0 15.0
2014-Nov-25 23:53 194 0 15.0
2014-Nov-25 23:39 194 15.0
2014-Nov-25 23:25 193 2 15.0
2014-Nov-25 23:09 281 15.6
2014-Nov-25 22:53 281 1 15.6
2014-Nov-25 22:38 281 1 15.6
2014-Nov-25 22:23 281 4 15.6
2014-Nov-25 22:09 277 3 16.1
2014-Nov-25 21:53 268 3 16.1
2014-Nov-25 21:37 257 3 16.7
2014-Nov-25 21:22 243 3 17.2
2014-Nov-25 21:07 273 1 17.2
2014-Nov-25 20:52 288 1 17.2
2014-Nov-25 20:37 288 1 17.2
2014-Nov-25 20:22 288 17.2
2014-Nov-25 20:07 288 17.2
2014-Nov-25 19:52 288 0 17.8
2014-Nov-25 19:37 214 1 18.3
2014-Nov-25 19:22 214 2 18.3
2014-Nov-25 19:07 218 2 18.3
2014-Nov-25 18:52 208 1 18.3
2014-Nov-25 18:37 263 18.3
2014-Nov-25 18:22 263 0 18.9
2014-Nov-25 18:07 225 1 18.9
2014-Nov-25 17:52 159 1 18.9
2014-Nov-25 17:37 174 0 18.9
2014-Nov-25 17:22 165 1 19.4
2014-Nov-25 17:07 170 5 19.4
2014-Nov-25 16:52 173 4 19.4
2014-Nov-25 16:37 174 1 20.0
2014-Nov-25 16:22 161 3 20.0
2014-Nov-25 16:07 099 0 21.1
2014-Nov-25 15:52 081 0 21.7
2014-Nov-25 15:37 217 22.2
2014-Nov-25 15:22 217 22.2
2014-Nov-25 15:07 217 21.7
2014-Nov-25 14:52 217 21.7
2014-Nov-25 14:37 217 0 21.7
2014-Nov-25 14:22 217 0 21.7
2014-Nov-25 14:07 254 0 21.7
2014-Nov-25 13:52 254 21.7
2014-Nov-25 13:37 254 0 21.1
2014-Nov-25 13:22 251 0 21.1
2014-Nov-25 13:07 252 1 20.6
2014-Nov-25 12:52 241 0 20.6
2014-Nov-25 12:37 240 0 20.6
2014-Nov-25 12:22 321 0 20.0
2014-Nov-25 12:07 303 1 20.0
2014-Nov-25 11:52 291 0 19.4
2014-Nov-25 11:37 290 2 19.4
2014-Nov-25 11:22 200 2 18.9
2014-Nov-25 11:07 261 2 18.9
2014-Nov-25 10:52 215 2 18.3
2014-Nov-25 10:37 223 4 17.2
2014-Nov-25 10:22 248 4 17.2
2014-Nov-25 10:07 224 4 17.2
2014-Nov-25 09:51 215 3 16.7
2014-Nov-25 09:36 225 3 16.7
2014-Nov-25 09:21 229 3 16.7
2014-Nov-25 09:06 221 2 16.1
2014-Nov-25 08:51 246 2 15.6
2014-Nov-25 08:36 234 2 15.6
2014-Nov-25 08:22 222 1 15.6
2014-Nov-25 08:06 259 0 15.0
2014-Nov-25 07:51 259 0 15.0
2014-Nov-25 07:36 257 2 15.0
2014-Nov-25 07:21
2014-Nov-25 07:06
2014-Nov-25 06:51
2014-Nov-25 05:36
2014-Nov-25 05:20
2014-Nov-25 05:05
2014-Nov-25 04:50
2014-Nov-25 04:35
2014-Nov-25 04:20
2014-Nov-25 04:05
2014-Nov-25 03:50
2014-Nov-25 03:35
2014-Nov-25 03:20
2014-Nov-25 03:05
2014-Nov-25 02:50
2014-Nov-25 02:35
2014-Nov-25 02:20
2014-Nov-25 02:04
2014-Nov-25 01:49
2014-Nov-25 01:34
2014-Nov-25 01:19
2014-Nov-25 01:04
2014-Nov-25 00:49 266 0 15.6
2014-Nov-25 00:34 266 2 15.6
2014-Nov-25 00:19 236 0 15.6
2014-Nov-25 00:04 235 1 15.6
2014-Nov-24 23:49 234 1 15.6
2014-Nov-24 23:34 231 1 15.6
2014-Nov-24 23:19 215 3 15.6
2014-Nov-24 23:04 225 1 15.6
2014-Nov-24 22:49 228 1 15.6
2014-Nov-24 22:34 167 0 14.4
2014-Nov-24 22:19 143 0 13.9
2014-Nov-24 22:04 093 14.4
2014-Nov-24 21:49 093 14.4
2014-Nov-24 21:34 093 14.4
2014-Nov-24 21:19 093 14.4
2014-Nov-24 20:49 093 15.6
2014-Nov-24 20:34 093 15.6
2014-Nov-24 20:19 093 16.1
2014-Nov-24 20:04 093 16.1